• In United Kingdom
  • List of Countries
  • For 7 days
  • Water Temperature
  • Satellite Maps
  • Weather Map
  • Weather Widgets
  • user-avatar
    Login

    Hourly Weather Klagenfurt

    Today, 14 December, Thursday

    Time Temperature Precipitation Wind Pressure Humidity
    00:00 -2°C° 0 mm 2 mps 683 mmHg 95%
    01:00 -2°C° 0 mm 2 mps 682 mmHg 94%
    02:00 -2°C° 0 mm 2 mps 682 mmHg 94%
    03:00 -2°C° 0 mm 2 mps 681 mmHg 93%
    04:00 -2°C° 0 mm 2 mps 681 mmHg 92%
    05:00 -1°C° 0 mm 2 mps 681 mmHg 92%
    06:00 -1°C° 0 mm 2 mps 681 mmHg 92%
    07:00 -1°C° 0 mm 2 mps 680 mmHg 92%
    08:00 +1°C° 0 mm 2 mps 681 mmHg 91%
    09:00 +2°C° 0 mm 2 mps 681 mmHg 90%
    10:00 +3°C° 0 mm 2 mps 681 mmHg 89%
    11:00 +3°C° 0 mm 2 mps 681 mmHg 87%
    12:00 +4°C° 0 mm 2 mps 681 mmHg 86%
    13:00 +5°C° 0 mm 2 mps 681 mmHg 85%
    14:00 +4°C° 0.1 mm 2 mps 681 mmHg 87%
    15:00 +4°C° 0.1 mm 1 mps 681 mmHg 90%
    16:00 +4°C° 0.1 mm 1 mps 681 mmHg 92%
    17:00 +4°C° 0.2 mm 1 mps 681 mmHg 93%
    18:00 +3°C° 0.2 mm 1 mps 681 mmHg 94%
    19:00 +3°C° 0.2 mm 1 mps 681 mmHg 95%
    20:00 +3°C° 0.1 mm 1 mps 680 mmHg 95%
    21:00 +3°C° 0.1 mm 1 mps 680 mmHg 95%
    22:00 +3°C° 0.1 mm 1 mps 680 mmHg 95%
    23:00 +2°C° 0.1 mm 2 mps 679 mmHg 95%

    Tomorrow, 15 December, Friday

    Time Temperature Precipitation Wind Pressure Humidity
    00:00 +2°C° 0.1 mm 2 mps 678 mmHg 94%
    01:00 +2°C° 0.1 mm 2 mps 678 mmHg 93%
    02:00 +2°C° 0 mm 2 mps 677 mmHg 93%
    03:00 +2°C° 0 mm 2 mps 677 mmHg 93%
    04:00 +2°C° 0 mm 2 mps 676 mmHg 93%
    05:00 +3°C° 0.3 mm 2 mps 676 mmHg 93%
    06:00 +3°C° 0.3 mm 2 mps 676 mmHg 93%
    07:00 +3°C° 0.3 mm 2 mps 676 mmHg 92%
    08:00 +4°C° 0.4 mm 2 mps 677 mmHg 92%
    09:00 +4°C° 0.4 mm 2 mps 677 mmHg 92%
    10:00 +5°C° 0.4 mm 1 mps 678 mmHg 91%
    11:00 +5°C° 0.2 mm 1 mps 678 mmHg 88%
    12:00 +5°C° 0.2 mm 1 mps 678 mmHg 86%
    13:00 +6°C° 0.2 mm 1 mps 678 mmHg 83%
    14:00 +5°C° 0.1 mm 1 mps 678 mmHg 85%
    15:00 +4°C° 0.1 mm 1 mps 678 mmHg 87%
    16:00 +4°C° 0.1 mm 1 mps 678 mmHg 89%
    17:00 +3°C° 1.3 mm 1 mps 678 mmHg 90%
    18:00 +3°C° 1.3 mm 1 mps 678 mmHg 91%
    19:00 +1°C° 1.3 mm 2 mps 679 mmHg 91%
    20:00 +1°C° 2.4 mm 2 mps 679 mmHg 92%
    21:00 -1°C° 2.4 mm 2 mps 679 mmHg 93%
    22:00 -1°C° 2.4 mm 2 mps 679 mmHg 93%
    23:00 0°C° 1.3 mm 1 mps 680 mmHg 94%

    Day after tomorrow, 16 December, Saturday

    Time Temperature Precipitation Wind Pressure Humidity
    00:00 0°C° 1.3 mm 1 mps 680 mmHg 94%
    01:00 0°C° 1.3 mm 1 mps 680 mmHg 94%
    02:00 0°C° 0.7 mm 1 mps 680 mmHg 94%
    03:00 0°C° 0.7 mm 1 mps 680 mmHg 94%
    04:00 -1°C° 0.7 mm 1 mps 680 mmHg 94%
    05:00 -1°C° 0.2 mm 1 mps 680 mmHg 93%
    06:00 -1°C° 0.2 mm 1 mps 681 mmHg 92%
    07:00 -1°C° 0.2 mm 1 mps 681 mmHg 92%
    08:00 -1°C° 0 mm 1 mps 682 mmHg 91%
    09:00 0°C° 0 mm 1 mps 682 mmHg 90%
    10:00 0°C° 0 mm 1 mps 682 mmHg 88%
    11:00 +1°C° 0 mm 1 mps 683 mmHg 87%
    12:00 +2°C° 0 mm 1 mps 683 mmHg 85%
    13:00 +2°C° 0 mm 1 mps 683 mmHg 83%
    14:00 +2°C° 0 mm 1 mps 683 mmHg 85%
    15:00 +1°C° 0 mm 1 mps 683 mmHg 86%
    16:00 0°C° 0 mm 1 mps 683 mmHg 88%
    17:00 -1°C° 0 mm 1 mps 684 mmHg 88%
    18:00 -2°C° 0 mm 1 mps 684 mmHg 88%
    19:00 -3°C° 0 mm 1 mps 685 mmHg 88%
    20:00 -3°C° 0 mm 1 mps 685 mmHg 88%
    21:00 -4°C° 0 mm 1 mps 685 mmHg 88%
    22:00 -4°C° 0 mm 1 mps 686 mmHg 88%
    23:00 -4°C° 0 mm 1 mps 686 mmHg 88%

    17 December, Sunday

    Time Temperature Precipitation Wind Pressure Humidity
    00:00 -4°C° 0 mm 1 mps 686 mmHg 87%
    01:00 -6°C° 0 mm 1 mps 686 mmHg 87%
    02:00 -6°C° 0 mm 1 mps 687 mmHg 87%
    03:00 -6°C° 0 mm 1 mps 687 mmHg 86%
    04:00 -6°C° 0 mm 1 mps 687 mmHg 86%
    05:00 -6°C° 0 mm 1 mps 687 mmHg 85%
    06:00 -6°C° 0 mm 1 mps 688 mmHg 84%
    07:00 -6°C° 0 mm 1 mps 688 mmHg 84%
    08:00 -4°C° 0 mm 1 mps 689 mmHg 82%
    09:00 -3°C° 0 mm 1 mps 690 mmHg 80%
    10:00 -1°C° 0 mm 1 mps 690 mmHg 78%
    11:00 -1°C° 0 mm 1 mps 691 mmHg 75%
    12:00 0°C° 0 mm 1 mps 691 mmHg 72%
    13:00 +1°C° 0 mm 1 mps 691 mmHg 69%
    14:00 0°C° 0 mm 1 mps 691 mmHg 72%
    15:00 -1°C° 0 mm 1 mps 691 mmHg 75%
    16:00 -2°C° 0 mm 1 mps 692 mmHg 79%
    17:00 -3°C° 0 mm 1 mps 692 mmHg 79%
    18:00 -3°C° 0 mm 1 mps 692 mmHg 80%
    19:00 -4°C° 0 mm 1 mps 693 mmHg 80%
    20:00 -4°C° 0 mm 1 mps 693 mmHg 81%
    21:00 -4°C° 0 mm 1 mps 694 mmHg 81%
    22:00 -4°C° 0 mm 1 mps 694 mmHg 81%
    23:00 -4°C° 0 mm 1 mps 694 mmHg 81%

    18 December, Monday

    Time Temperature Precipitation Wind Pressure Humidity
    00:00 -4°C° 0 mm 1 mps 695 mmHg 81%
    01:00 -4°C° 0 mm 1 mps 695 mmHg 82%
    02:00 -6°C° 0 mm 1 mps 695 mmHg 82%
    03:00 -6°C° 0 mm 1 mps 695 mmHg 82%
    04:00 -6°C° 0 mm 1 mps 695 mmHg 82%
    05:00 -6°C° 0 mm 1 mps 695 mmHg 82%
    06:00 -6°C° 0 mm 1 mps 695 mmHg 82%
    07:00 -7°C° 0 mm 1 mps 696 mmHg 82%
    08:00 -4°C° 0 mm 1 mps 696 mmHg 80%
    09:00 -3°C° 0 mm 1 mps 696 mmHg 78%
    10:00 -3°C° 0 mm 0 mps 697 mmHg 77%
    11:00 -1°C° 0 mm 1 mps 696 mmHg 75%
    12:00 -1°C° 0 mm 1 mps 696 mmHg 73%
    13:00 0°C° 0 mm 1 mps 695 mmHg 71%
    14:00 0°C° 0 mm 1 mps 695 mmHg 75%
    15:00 -1°C° 0 mm 1 mps 694 mmHg 79%
    16:00 -2°C° 0 mm 1 mps 694 mmHg 83%
    17:00 -2°C° 0.1 mm 1 mps 693 mmHg 83%
    18:00 -3°C° 0.1 mm 1 mps 693 mmHg 84%
    19:00 -3°C° 0.1 mm 1 mps 693 mmHg 84%
    20:00 -3°C° 0.1 mm 1 mps 693 mmHg 84%
    21:00 -3°C° 0.1 mm 1 mps 693 mmHg 84%
    22:00 -3°C° 0.1 mm 1 mps 693 mmHg 84%
    23:00 -3°C° 0 mm 1 mps 693 mmHg 84%

    19 December, Tuesday

    Time Temperature Precipitation Wind Pressure Humidity
    00:00 -4°C° 0 mm 1 mps 693 mmHg 83%
    01:00 -4°C° 0 mm 1 mps 694 mmHg 83%
    02:00 -4°C° 0 mm 1 mps 694 mmHg 83%
    03:00 -4°C° 0 mm 1 mps 694 mmHg 83%
    04:00 -4°C° 0 mm 1 mps 694 mmHg 84%
    05:00 -4°C° 0 mm 1 mps 695 mmHg 84%
    06:00 -4°C° 0 mm 1 mps 695 mmHg 83%
    07:00 -4°C° 0 mm 1 mps 695 mmHg 83%
    08:00 -2°C° 0 mm 1 mps 696 mmHg 82%
    09:00 -1°C° 0 mm 1 mps 697 mmHg 81%
    10:00 +1°C° 0 mm 1 mps 697 mmHg 79%
    11:00 +2°C° 0 mm 1 mps 697 mmHg 79%
    12:00 +3°C° 0 mm 1 mps 698 mmHg 79%
    13:00 +4°C° 0 mm 1 mps 698 mmHg 79%
    14:00 +2°C° 0 mm 0 mps 698 mmHg 81%
    15:00 +1°C° 0 mm 0 mps 698 mmHg 83%
    16:00 0°C° 0 mm 0 mps 697 mmHg 84%
    17:00 0°C° 0 mm 0 mps 698 mmHg 85%
    18:00 0°C° 0 mm 1 mps 698 mmHg 85%
    19:00 0°C° 0 mm 1 mps 698 mmHg 85%
    20:00 -1°C° 0 mm 1 mps 699 mmHg 85%
    21:00 -1°C° 0 mm 1 mps 699 mmHg 85%
    22:00 -1°C° 0 mm 1 mps 699 mmHg 85%
    23:00 -1°C° 0 mm 1 mps 699 mmHg 85%
    Show more